Austin Bergstrom, TX

6:14 AM CST on February 21, 2018 (GMT -0600)
Austin Bergstrom International

Weather History for KAUS - January, 2014

Change the Weather History Date:

Sunday, January 26, 2014

  Actual Average Record
Temperature  
Mean Temperature 55 °F 50 °F  
Max Temperature 73 °F 62 °F 86 °F (1975)
Min Temperature 37 °F 37 °F 24 °F (2011)
Degree Days  
Heating Degree Days 10 16  
Month to date heating degree days 467 416  
Since 1 July heating degree days 1336 1163  
Cooling Degree Days 0 0  
Month to date cooling degree days 0 0  
Year to date cooling degree days 0 0  
Growing Degree Days 9 (Base 50)    
Moisture  
Dew Point 39 °F    
Average Humidity 58    
Maximum Humidity 85    
Minimum Humidity 31    
Precipitation  
Precipitation 0.00 in 0.07 in 1.74 in (1992)
Month to date precipitation 0.52 1.90  
Year to date precipitation 0.52 1.90  
Snow  
Snow 0.00 in - - ()
Month to date snowfall T  
Since 1 July snowfall T  
Snow Depth 0.00 in    
Sea Level Pressure  
Sea Level Pressure 29.84 in    
Wind  
Wind Speed 8 mph (SSW)    
Max Wind Speed 24 mph    
Max Gust Speed 30 mph    
Visibility 10 miles    
Events      
T = Trace of Precipitation, MM = Missing Value Source: NWS Daily Summary

Daily Weather History Graph

Daily Weather History Graph

Search for Another Location

Airport or City:

Trip Planner

Search our weather history database for the weather conditions in past years. The results will help you decide how hot, cold, wet, or windy it might be!

Date:

Astronomy

Jan. 26, 2014 Rise Set
Actual Time 7:24 AM CST 6:02 PM CST
Civil Twilight 6:58 AM CST 6:27 PM CST
Nautical Twilight 6:30 AM CST 6:56 PM CST
Astronomical Twilight 6:01 AM CST 7:25 PM CST
Moon 3:01 AM CST (1/26) 1:55 PM CST (1/26)
Length of Visible Light 11h 28m
Length of Day
10h 38m
Waning Crescent, 23% of the Moon is Illuminated
Jan 26
Waning Crescent
Jan 30
New
Feb 6
First Quarter
Feb 14
Full
Feb 22
Last Quarter

Hourly Weather History & Observations

Time (CST) Temp. Windchill Dew Point Humidity Pressure Visibility Wind Dir Wind Speed Gust Speed Precip Events Conditions
12:53 AM 48.9 °F - 35.1 °F 59% 29.99 in 10.0 mi Calm Calm - N/A   Mostly Cloudy
1:53 AM 46.0 °F 43.9 °F 36.0 °F 68% 29.97 in 10.0 mi South 4.6 mph - N/A   Mostly Cloudy
2:53 AM 46.0 °F 43.1 °F 35.1 °F 66% 29.97 in 10.0 mi South 5.8 mph - N/A   Scattered Clouds
3:53 AM 45.0 °F - 36.0 °F 71% 29.96 in 10.0 mi Calm Calm - N/A   Mostly Cloudy
4:53 AM 39.9 °F 36.7 °F 33.1 °F 77% 29.95 in 10.0 mi South 4.6 mph - N/A   Partly Cloudy
5:53 AM 37.9 °F 34.4 °F 33.1 °F 83% 29.94 in 10.0 mi South 4.6 mph - N/A   Scattered Clouds
6:53 AM 39.0 °F 34.8 °F 32.0 °F 76% 29.94 in 10.0 mi SSW 5.8 mph - N/A   Scattered Clouds
7:53 AM 39.0 °F - 33.1 °F 79% 29.94 in 10.0 mi Calm Calm - N/A   Partly Cloudy
8:53 AM 46.9 °F - 35.1 °F 63% 29.93 in 10.0 mi SSW 5.8 mph - N/A   Partly Cloudy
9:53 AM 55.9 °F - 36.0 °F 47% 29.92 in 10.0 mi SSW 10.4 mph - N/A   Partly Cloudy
10:53 AM 62.1 °F - 37.9 °F 41% 29.90 in 10.0 mi SSW 15.0 mph 20.7 mph N/A   Partly Cloudy
11:53 AM 66.0 °F - 37.9 °F 36% 29.86 in 10.0 mi SSW 13.8 mph 23.0 mph N/A   Clear
12:53 PM 69.1 °F - 39.0 °F 33% 29.81 in 10.0 mi SSW 16.1 mph 24.2 mph N/A   Clear
1:53 PM 71.1 °F - 41.0 °F 34% 29.76 in 10.0 mi SSW 17.3 mph 26.5 mph N/A   Clear
2:53 PM 72.0 °F - 41.0 °F 33% 29.72 in 10.0 mi SSW 21.9 mph 28.8 mph N/A   Clear
3:53 PM 73.0 °F - 41.0 °F 31% 29.70 in 10.0 mi South 19.6 mph 27.6 mph N/A   Clear
4:53 PM 73.0 °F - 43.0 °F 34% 29.70 in 10.0 mi SSW 16.1 mph 23.0 mph N/A   Clear
5:53 PM 68.0 °F - 45.0 °F 43% 29.70 in 10.0 mi South 11.5 mph - N/A   Clear
6:53 PM 62.1 °F - 45.0 °F 53% 29.72 in 10.0 mi SSW 8.1 mph - N/A   Clear
7:53 PM 62.1 °F - 45.0 °F 53% 29.73 in 10.0 mi SSW 8.1 mph - N/A   Clear
8:53 PM 57.9 °F - 45.0 °F 62% 29.75 in 10.0 mi SW 4.6 mph - N/A   Clear
9:53 PM 55.0 °F - 43.0 °F 64% 29.76 in 10.0 mi SSW 4.6 mph - N/A   Clear
10:53 PM 46.9 °F - 41.0 °F 80% 29.80 in 10.0 mi Calm Calm - N/A   Clear
11:53 PM 43.0 °F - 39.0 °F 86% 29.81 in 10.0 mi Calm Calm - N/A   Clear